GFSSW_700_rhum_174.txt.gz
RH
10 10 10 10 10 10 9 9 9 9 9 9 9 10 10 11 12 14 20 23 23 23 22 19 13 11 11 11 13 18 31 26 17 19 14 11 18 17 18 19 20 20 20 25 38
22 21 20 21 21 21 22 23 24 24 25 25 25 25 24 24 23 25 27 28 27 26 24 23 20 14 11 12 16 14 30 26 17 21 23 18 23 21 20 19 18 19 22 40 41
54 54 52 51 50 51 50 48 46 44 42 40 39 37 36 34 32 32 31 30 30 30 28 24 20 15 14 20 16 15 17 19 26 26 28 27 20 23 22 20 17 18 18 18 33
60 60 59 56 54 55 55 55 54 51 48 47 44 43 43 42 40 36 38 35 36 36 41 39 32 24 17 13 11 12 13 16 20 22 25 24 25 21 21 21 19 16 17 18 18
70 68 69 66 62 63 62 62 60 57 56 55 51 49 48 46 38 50 47 43 43 44 46 45 42 39 38 30 25 20 17 17 17 18 17 22 22 24 22 15 18 18 17 16 17
75 76 75 73 70 70 66 64 61 59 56 56 54 54 50 46 41 44 47 48 47 48 49 51 49 49 50 42 45 45 41 32 23 18 18 20 16 23 18 17 17 16 15 17 16
78 76 74 73 71 69 65 59 57 58 58 56 52 47 41 34 32 34 40 41 41 42 42 46 52 56 50 51 51 49 47 36 33 29 29 24 22 17 14 16 17 18 19 17 16
76 74 71 67 64 62 60 56 53 48 43 41 38 35 32 30 28 26 24 24 29 32 35 38 52 58 56 59 55 58 57 59 31 30 29 32 31 26 22 25 27 27 24 20 18
68 65 64 59 54 52 51 50 45 38 34 31 30 30 28 27 27 25 24 24 23 24 26 35 47 52 62 64 65 71 58 40 41 34 36 34 29 31 27 31 32 30 28 23 21
63 59 56 55 52 48 42 37 33 32 30 28 26 24 22 25 22 23 20 20 20 19 21 28 44 54 71 64 82 59 54 42 47 44 40 41 34 34 36 34 36 32 28 24 22
71 62 49 43 38 35 31 27 24 22 20 18 18 17 17 16 15 17 19 17 19 20 24 25 41 59 45 46 50 63 66 61 54 54 63 57 45 29 36 39 36 31 24 23 22
68 46 37 32 29 26 23 21 19 15 13 11 9 8 8 8 8 9 23 30 32 34 36 50 33 24 51 58 67 83 84 80 66 69 68 63 60 41 45 47 36 33 34 30 24
38 32 26 22 19 16 12 9 7 7 7 10 12 13 13 13 11 10 8 11 31 69 73 50 21 42 48 52 74 85 90 86 82 82 78 72 65 56 39 46 40 39 38 37 35
38 18 14 12 13 12 12 11 11 12 17 18 18 18 19 16 14 14 12 10 19 50 67 60 23 29 49 48 87 87 58 78 81 77 74 67 71 44 48 34 32 34 34 34 36
33 18 15 16 28 29 35 31 30 30 49 25 26 29 24 20 19 23 23 20 13 17 58 13 31 32 25 11 72 65 81 79 74 70 65 58 75 52 49 53 40 28 32 34 37
93 77 58 55 76 64 50 49 50 40 63 30 40 40 40 37 31 28 53 60 44 27 40 19 40 51 33 50 74 74 73 75 73 71 80 58 72 59 26 48 49 51 32 32 36
92 61 61 83 94 74 69 68 68 82 42 38 42 44 54 53 59 53 44 57 73 74 67 40 37 40 69 85 58 81 81 81 81 81 78 55 68 63 20 47 41 46 40 36 28
88 72 90 95 95 85 85 92 94 58 54 39 44 42 43 42 48 55 59 61 52 59 75 91 70 34 38 54 62 65 68 80 80 71 61 55 66 56 54 53 48 45 42 42 35
95 88 83 94 98 95 95 98 80 65 62 66 62 63 48 43 57 46 48 60 67 64 87 99 94 43 65 72 65 44 76 52 78 67 78 68 58 53 49 51 52 53 50 44 40
76 58 62 93 95 98 98 82 68 64 70 82 88 82 76 64 70 69 68 74 75 91 99 99 98 66 70 70 68 92 81 81 80 86 86 64 61 61 53 54 55 55 48 42 38
64 70 60 81 94 97 96 80 63 54 63 75 85 90 86 85 85 88 93 98 91 87 96 98 98 82 77 81 90 79 82 99 100 96 82 72 59 70 73 77 76 68 55 50 41
77 73 65 77 86 97 82 89 82 68 77 80 81 73 71 67 74 98 90 95 90 97 97 98 97 98 87 54 81 99 99 99 99 99 99 99 98 100 98 100 91 90 99 87 68
88 85 77 84 82 71 77 83 87 63 74 98 98 92 69 91 98 97 98 90 85 96 90 88 94 93 65 91 95 99 98 97 95 98 98 98 99 99 87 84 90 92 90 79 71
90 99 98 97 93 87 84 100 99 75 81 90 95 95 90 99 93 94 96 72 63 73 79 82 88 97 96 92 74 91 96 96 97 96 96 88 93 84 50 69 61 76 63 78 59
94 74 69 83 74 78 93 78 70 68 78 74 74 78 99 97 89 97 81 73 64 46 86 94 86 64 69 85 97 96 85 90 98 88 97 76 86 55 48 44 68 70 55 56 46
96 89 84 81 76 85 85 81 76 60 62 56 79 86 96 94 88 92 74 54 48 45 51 51 60 60 54 70 95 96 62 60 61 65 69 57 58 28 44 41 31 57 54 60 59
94 94 89 85 88 84 84 64 63 70 65 83 91 89 96 95 80 68 54 46 41 45 51 46 41 53 59 66 85 86 38 34 40 49 53 64 29 36 53 54 43 31 56 60 66

GFSSW_700_rhum_180.txt.gz
RH
17 16 15 15 13 12 11 10 9 8 8 8 8 8 8 9 11 12 14 16 16 18 21 24 25 25 24 23 21 17 20 19 17 16 16 15 14 12 11 17 19 18 19 20 20
14 13 12 12 11 10 10 9 9 9 10 12 16 21 24 26 26 28 27 27 27 26 26 27 28 28 28 28 25 23 20 20 20 18 17 15 14 13 12 13 14 18 19 21 20
12 12 11 10 10 10 13 17 22 28 30 33 34 34 32 33 33 31 30 31 31 31 32 32 34 35 34 35 34 30 27 24 22 19 16 15 14 12 11 11 10 12 22 23 22
12 12 14 18 25 32 38 40 40 38 38 36 37 41 40 43 45 40 43 42 39 40 41 40 40 41 42 41 40 38 36 34 31 28 24 21 16 17 13 12 11 11 20 25 25
34 36 40 44 47 49 50 49 47 46 46 47 47 48 46 49 44 53 48 45 45 44 44 45 43 47 47 48 47 46 39 38 39 38 34 34 30 29 28 21 19 14 13 14 20
52 51 52 53 53 57 62 62 61 61 58 57 57 58 53 51 48 47 45 44 41 36 35 40 45 51 52 49 50 43 40 40 38 33 35 33 33 34 26 25 25 26 23 18 16
66 62 62 63 65 66 72 73 72 69 63 62 64 58 51 47 47 42 40 38 36 32 28 27 36 46 50 55 52 40 40 36 34 30 32 32 31 26 25 25 26 26 26 27 26
73 71 68 71 72 75 74 73 80 70 63 66 66 58 52 46 40 37 34 31 30 29 28 27 28 34 46 53 45 54 46 44 24 21 25 29 21 20 22 24 25 25 26 27 29
80 75 77 78 79 80 80 78 82 70 68 68 63 56 47 40 36 32 28 26 26 27 26 25 24 29 44 38 49 64 40 29 30 34 30 26 14 28 28 22 20 24 27 29 30
83 78 78 83 85 83 79 83 78 76 72 65 57 50 42 36 28 27 26 22 18 17 20 15 15 26 31 35 54 33 34 27 36 42 52 42 9 12 17 17 14 15 18 23 26
82 76 78 88 88 85 81 82 73 68 62 56 53 44 37 35 31 24 20 14 13 13 10 12 15 11 9 14 21 37 47 53 63 64 66 57 21 6 11 12 10 10 11 13 17
86 82 89 92 87 85 84 80 73 66 58 50 44 42 38 29 24 20 16 15 17 16 16 16 14 16 20 24 40 59 70 62 47 58 67 65 28 7 7 7 7 6 5 6 9
99 97 95 97 90 86 85 80 74 64 49 47 45 42 36 26 22 25 15 14 13 15 14 13 22 25 44 67 71 56 68 41 58 71 73 85 40 10 9 13 20 8 11 8 8
100 100 99 100 98 95 88 81 75 56 38 34 35 30 31 28 25 26 23 22 18 17 19 21 26 24 28 30 56 34 50 58 86 89 87 77 74 16 22 14 9 14 16 16 9
100 100 100 99 100 99 86 79 54 36 48 41 31 34 30 25 31 40 42 39 30 26 22 21 20 19 39 50 65 51 72 84 86 91 92 60 96 49 17 14 4 23 22 23 24
100 100 100 98 100 99 87 65 32 30 47 37 38 33 30 28 30 38 39 46 50 44 47 37 28 28 30 33 52 54 70 89 78 77 94 70 76 71 31 6 16 23 28 28 38
100 100 100 99 100 99 94 57 41 42 53 48 49 41 33 41 44 51 52 52 54 56 48 42 41 40 46 54 50 50 54 74 84 90 77 56 65 65 44 26 38 41 36 32 32
99 99 99 99 98 96 84 72 93 80 51 53 49 55 52 48 48 47 46 48 51 56 65 65 52 49 78 73 82 81 72 70 77 57 47 44 59 50 43 43 45 50 50 50 46
98 98 98 98 96 97 97 98 85 63 63 54 52 52 50 48 47 43 42 47 48 52 69 83 70 56 65 67 74 69 84 72 78 81 81 72 57 50 41 53 55 56 54 62 63
95 96 97 96 96 98 98 93 93 76 67 58 55 61 56 62 56 55 58 84 91 87 93 98 94 72 75 79 87 98 99 98 93 95 92 77 67 60 58 77 79 76 75 74 76
97 98 97 96 96 97 95 95 94 82 72 64 56 62 67 64 69 68 67 76 64 66 66 73 78 60 58 70 70 75 87 94 90 94 96 94 92 95 97 96 95 97 94 74 100
96 96 94 96 97 97 100 100 99 90 75 70 63 54 64 69 68 69 69 70 62 60 72 81 95 92 64 52 60 65 96 96 96 93 96 94 86 79 84 87 91 89 88 90 98
96 98 98 96 95 93 98 97 89 81 67 64 60 55 56 67 74 78 74 72 65 69 84 86 89 86 64 65 92 75 40 30 69 91 94 97 84 41 33 48 57 79 81 72 61
96 96 97 97 92 87 86 81 73 65 70 61 61 62 68 73 70 80 84 74 74 86 82 70 81 76 77 44 48 56 32 34 62 98 77 72 51 31 25 40 50 55 72 54 53
97 94 87 85 92 85 79 66 64 75 78 63 58 62 65 67 76 73 62 61 61 54 78 94 91 81 68 57 36 36 24 18 71 54 99 46 56 32 25 25 30 51 56 61 39
93 90 85 73 72 76 72 68 71 64 62 58 51 54 62 60 59 60 62 67 67 90 100 98 85 78 71 33 31 34 20 14 19 39 57 52 58 43 24 24 41 24 30 48 44
90 92 94 91 81 80 65 59 61 64 60 54 60 70 65 52 60 70 70 80 99 94 91 89 86 75 47 38 54 57 16 20 25 29 58 62 57 69 49 44 40 44 29 34 34

GFSSW_700_rhum_183.txt.gz
RH
21 22 25 22 19 17 16 14 12 10 9 8 8 7 7 8 9 10 11 13 15 16 17 18 19 21 23 24 25 23 22 22 20 20 21 22 21 19 17 16 14 13 14 19 20
16 17 18 18 16 14 12 11 10 9 8 8 8 10 13 16 20 24 24 24 24 23 24 25 25 25 25 26 29 29 29 27 26 27 26 26 24 21 19 16 14 12 13 19 22
15 14 15 14 13 12 12 10 9 8 10 15 21 26 29 29 28 26 27 29 29 29 28 29 30 31 31 32 33 36 34 34 34 35 33 31 29 27 24 22 20 15 12 13 19
13 13 14 14 13 11 10 10 11 18 27 32 34 33 33 35 37 36 38 39 39 39 39 41 42 42 42 42 42 43 40 40 40 38 37 37 37 33 31 23 23 25 26 19 13
12 12 12 11 11 11 13 20 29 36 40 40 41 42 43 42 40 44 45 43 44 43 43 43 43 43 43 47 45 45 39 42 40 37 36 36 34 35 27 23 25 26 26 25 24
12 12 12 14 17 23 32 41 44 45 48 49 52 53 55 49 48 48 47 46 45 44 41 38 33 36 47 47 45 40 39 36 34 31 34 34 31 35 20 24 22 23 23 24 24
24 25 28 33 37 44 51 53 56 54 58 61 60 60 61 54 54 50 48 45 41 38 38 35 31 29 32 38 37 35 33 34 27 24 23 24 20 15 16 18 18 20 22 23 24
46 47 49 51 54 59 64 65 66 66 67 68 63 66 60 56 54 47 44 41 36 33 31 30 30 29 30 31 35 42 37 41 30 28 22 19 16 17 14 15 19 18 17 19 22
62 62 65 65 69 71 73 74 72 71 71 72 67 70 57 54 47 43 38 32 30 29 28 28 28 30 31 32 40 35 42 34 35 28 22 18 10 26 24 17 16 16 15 14 17
73 73 76 75 78 77 76 82 80 82 77 74 72 68 61 55 47 42 34 30 26 24 23 22 24 29 25 22 35 27 28 35 48 45 27 29 8 11 14 15 10 8 8 8 11
80 82 83 83 81 78 80 89 89 88 73 66 71 64 50 44 34 31 28 27 25 21 17 17 21 18 11 13 18 30 39 55 52 34 41 29 11 7 9 10 9 8 6 6 7
88 90 91 90 86 87 91 93 88 87 79 71 67 66 62 56 49 43 41 30 24 20 18 22 19 18 18 19 32 39 42 57 33 42 60 46 12 6 8 8 7 8 12 12 12
100 98 94 96 99 98 98 98 98 97 91 77 70 68 62 53 46 44 35 27 22 18 16 15 26 39 37 47 61 52 49 32 48 59 52 45 21 12 16 10 12 12 14 19 20
100 100 100 100 100 99 99 100 100 100 97 74 63 53 50 45 42 40 38 30 22 22 19 20 24 24 32 36 30 39 40 52 69 90 75 74 59 10 10 7 23 17 21 26 19
100 100 100 98 98 93 97 100 100 96 96 67 54 48 51 42 43 37 31 29 28 25 22 24 26 25 31 28 41 52 53 60 69 92 89 40 89 46 12 12 24 32 31 26 23
100 100 100 100 100 100 100 100 98 98 93 61 43 41 36 33 37 47 54 42 41 41 39 31 31 33 32 36 45 54 63 67 63 73 72 48 64 50 23 23 26 34 30 26 19
100 100 100 100 99 100 100 100 97 96 82 54 46 39 34 37 47 49 48 49 45 47 53 57 48 48 51 53 54 60 64 73 63 82 55 40 47 50 42 41 53 47 45 46 47
100 100 100 100 100 100 100 99 96 92 71 58 52 42 43 45 50 50 50 50 50 52 52 53 58 64 76 75 75 66 65 69 63 47 44 47 49 38 44 48 50 60 59 53 58
100 100 100 100 100 100 100 98 93 96 76 63 60 59 59 54 50 54 58 56 54 62 56 67 75 73 70 68 62 76 75 84 99 90 92 68 56 59 59 70 64 63 63 64 64
100 100 99 99 99 98 99 96 96 95 86 76 73 62 63 61 53 53 54 70 62 65 57 65 61 64 64 59 71 83 60 89 90 95 92 82 75 81 49 49 64 51 64 79 90
100 98 97 98 97 97 96 96 96 97 95 95 96 94 84 88 80 69 71 70 66 67 62 54 48 48 37 44 48 48 58 57 75 84 89 88 67 36 58 36 30 36 39 51 79
97 96 96 96 97 98 96 95 96 97 94 94 96 96 96 94 90 63 53 49 54 50 44 41 43 47 54 55 49 56 72 79 80 79 75 78 84 62 40 26 28 26 29 51 73
96 96 97 97 97 97 97 96 91 94 96 96 96 94 95 84 62 54 64 62 63 61 70 75 80 76 57 69 86 80 49 40 80 74 84 76 57 16 11 11 28 30 25 31 58
96 96 98 97 93 93 93 97 97 97 96 96 95 88 59 57 60 67 70 69 71 70 86 86 82 74 62 51 60 58 45 57 92 86 62 64 37 11 7 10 18 27 28 41 44
96 93 89 95 99 96 93 93 94 94 94 94 85 56 54 60 59 50 51 59 60 72 90 74 81 70 59 72 62 57 47 37 50 55 79 22 48 11 20 33 29 32 34 44 60
95 93 91 86 100 100 97 96 92 92 81 78 54 50 50 47 45 50 53 55 55 55 57 73 98 90 83 70 75 69 33 23 20 18 33 74 76 20 52 49 42 46 59 61 54
96 94 88 96 99 94 91 92 87 75 77 65 60 60 55 48 50 48 47 51 54 58 75 100 98 96 84 67 57 47 23 22 36 33 62 68 61 66 58 64 46 39 52 70 69

GFSSW_700_rhum_186.txt.gz
RH
23 23 21 21 22 23 23 22 19 16 13 11 10 9 8 7 7 8 9 11 13 15 16 17 18 19 20 22 24 25 31 26 24 26 24 26 24 24 30 24 22 32 18 14 14
24 24 24 23 22 20 19 18 16 14 11 10 9 8 7 8 11 14 18 20 22 22 23 23 23 24 27 26 26 28 30 27 28 29 29 31 33 30 31 30 26 31 22 17 13
21 23 25 24 22 21 17 16 13 12 10 10 8 8 11 18 24 22 23 23 23 23 25 27 27 28 29 29 36 37 36 33 36 37 36 37 36 36 37 26 28 33 32 29 23
18 20 21 23 21 19 16 14 13 11 10 9 10 16 25 29 37 28 29 30 31 33 33 33 33 35 36 42 47 39 41 38 41 38 40 37 40 32 33 24 25 30 32 31 27
17 15 18 18 18 18 16 15 12 10 9 11 20 30 35 36 35 40 38 37 40 40 41 44 44 43 45 45 40 42 42 48 40 34 33 35 30 29 23 21 22 26 29 28 27
16 17 16 16 17 17 17 14 11 11 14 26 36 40 42 43 43 47 46 45 45 44 44 46 45 41 45 36 35 49 34 34 30 26 24 26 23 22 16 18 16 19 24 27 27
17 17 16 17 16 16 16 13 13 19 29 40 46 50 51 49 54 54 53 50 49 48 44 42 41 42 45 34 31 31 32 40 31 30 23 20 23 27 31 20 17 16 29 26 28
17 16 17 17 17 17 16 17 24 35 44 52 56 61 58 54 56 52 52 47 52 46 41 37 34 34 37 36 33 51 55 51 42 26 23 24 28 25 32 13 22 32 37 42 36
23 21 18 17 19 20 24 31 41 53 54 61 66 68 62 57 56 55 49 48 48 43 39 35 33 33 32 31 56 59 48 36 38 44 18 36 33 34 21 32 36 38 31 11 9
35 26 23 25 26 31 38 46 57 69 68 72 68 72 66 61 54 47 38 36 32 29 32 28 33 41 35 49 35 24 20 35 36 35 44 36 20 34 37 43 48 35 10 9 13
58 44 40 42 43 47 55 59 71 83 74 58 68 66 69 61 48 41 43 40 32 27 24 22 28 54 45 46 39 33 35 40 37 44 46 45 18 23 35 39 40 40 15 16 15
79 63 58 58 61 64 70 74 74 81 82 76 80 80 76 74 64 50 33 33 32 35 43 35 46 48 58 32 44 51 50 48 48 57 56 43 17 24 34 35 28 36 43 38 25
94 79 74 75 80 80 80 76 84 88 98 96 85 87 79 75 69 64 58 53 47 43 49 51 41 44 31 60 43 63 62 58 50 46 53 51 34 26 25 31 36 31 35 44 36
99 100 97 97 96 97 94 100 100 98 100 97 90 85 78 82 74 67 60 49 39 37 45 54 52 56 64 62 64 58 51 52 64 64 42 50 38 14 24 30 27 38 49 42 21
100 100 100 98 98 96 97 100 98 100 98 92 92 81 71 63 60 52 53 49 39 38 37 40 39 27 46 44 45 50 66 63 68 64 59 43 48 25 23 23 30 39 36 29 23
100 100 99 100 100 100 100 99 99 100 96 96 70 66 65 59 50 50 44 37 38 42 42 33 56 37 50 62 50 76 72 72 69 62 56 40 37 29 27 32 48 40 39 39 34
100 100 99 100 97 100 100 100 100 97 98 83 65 55 53 48 57 48 48 49 51 62 59 50 50 60 41 66 71 73 62 45 46 52 46 30 33 33 30 35 37 56 63 57 62
100 100 100 100 100 100 100 100 98 90 97 73 70 47 58 62 63 81 85 87 55 56 48 51 56 79 54 65 64 66 58 44 41 32 25 28 32 29 32 39 46 53 55 50 46
100 100 100 100 100 100 100 99 97 98 96 87 68 58 63 62 61 63 73 61 80 48 51 56 66 82 79 71 68 64 58 70 66 54 53 43 37 37 41 54 58 49 39 31 28
100 100 100 100 100 100 100 99 99 99 99 89 72 58 60 60 60 63 82 96 56 52 53 58 83 95 76 62 50 60 68 57 77 79 62 37 48 40 58 60 58 42 43 28 23
100 100 100 100 99 99 99 99 99 99 99 95 98 89 76 71 61 67 86 79 64 57 51 51 55 78 63 46 42 57 49 66 72 57 60 49 38 45 54 57 48 41 23 27 26
100 100 99 98 98 98 98 98 98 98 98 96 98 96 95 96 93 84 96 81 74 70 58 42 42 62 52 63 33 55 68 75 81 72 85 83 63 44 44 39 28 34 35 31 33
99 99 97 97 96 97 97 96 96 96 96 97 98 97 96 96 94 95 95 91 74 54 45 38 68 56 65 91 93 98 70 92 74 46 58 65 49 40 37 34 31 31 37 48 67
99 96 97 97 96 96 96 96 96 97 97 97 96 97 96 97 96 96 91 84 80 60 42 42 56 60 38 53 58 66 67 95 76 78 64 64 59 48 33 26 28 34 49 71 88
98 98 90 96 96 95 94 94 95 95 96 97 97 95 94 95 97 95 89 66 69 54 64 71 82 84 78 62 59 57 61 64 64 73 75 58 48 36 33 39 45 65 69 61 49
94 94 98 98 99 96 98 97 95 96 92 96 93 94 92 89 66 80 56 51 60 75 78 81 72 84 87 78 73 75 74 62 52 43 40 36 32 30 37 54 76 88 92 74 76
97 93 90 95 97 97 96 95 96 95 96 96 93 92 83 60 47 44 57 50 52 69 94 75 92 90 67 63 67 64 54 45 39 32 32 38 40 62 71 83 94 98 96 97 98

GFSSW_700_rhum_192.txt.gz
RH
18 19 21 21 23 23 23 23 22 21 22 22 21 19 17 14 12 9 8 8 7 8 8 10 13 15 16 17 23 29 30 26 20 18 16 17 19 20 22 25 26 27 28 28 28
21 22 23 23 25 26 26 26 26 25 23 22 20 20 17 13 10 8 8 8 7 10 15 18 23 36 29 35 34 34 30 25 21 20 21 23 25 26 28 29 29 30 30 30 31
26 24 25 25 26 28 29 29 28 27 27 26 21 17 15 12 9 9 7 8 13 18 22 22 23 26 25 38 34 32 32 30 30 28 28 30 30 30 31 33 34 37 38 37 38
24 27 29 29 30 30 30 31 30 29 29 29 26 19 15 12 22 34 14 19 22 24 24 26 28 30 45 42 38 35 33 35 35 33 33 34 36 38 40 38 33 40 38 38 39
20 26 29 30 33 33 33 33 32 32 31 29 25 21 17 12 10 20 37 32 28 30 33 34 34 48 50 48 45 42 40 39 38 37 39 40 44 43 42 39 39 37 35 36 37
19 21 24 31 34 37 36 36 34 33 34 31 26 20 18 12 12 8 19 31 33 35 37 40 42 45 57 56 55 50 48 43 45 47 47 44 41 40 36 30 33 34 34 35 37
55 20 21 24 33 38 38 39 38 35 36 33 28 22 16 10 12 12 19 31 34 36 42 48 51 51 60 60 57 53 53 54 51 47 41 38 36 37 27 26 29 30 32 37 34
89 66 25 22 26 36 41 39 37 39 38 35 29 26 15 11 11 13 28 36 37 38 40 46 45 49 48 52 53 61 57 50 33 38 35 37 35 31 26 28 28 32 30 30 31
98 95 74 36 24 30 39 43 40 38 40 36 32 31 20 11 10 16 34 33 42 42 41 41 51 52 55 58 54 50 48 40 36 32 34 30 28 27 29 28 28 29 29 32 37
97 98 100 77 36 26 33 42 41 43 44 43 38 42 18 15 24 24 33 38 46 52 46 42 51 60 58 56 49 43 37 34 33 32 22 19 22 22 26 30 29 29 30 31 34
99 98 99 100 66 33 27 37 44 47 49 34 25 19 46 62 66 39 50 50 53 53 46 45 54 62 54 50 49 42 39 37 32 28 24 22 25 29 32 31 30 28 27 30 37
98 100 100 100 100 60 30 27 22 42 42 28 22 17 20 61 79 65 59 57 56 54 51 72 70 57 50 50 44 46 43 39 36 31 26 27 32 34 26 27 28 28 33 35 39
99 99 100 96 100 96 67 42 33 48 56 46 29 27 22 49 64 68 69 58 58 68 68 62 55 57 57 44 39 38 37 36 35 32 35 39 35 26 26 26 28 34 34 38 39
56 98 99 99 100 100 88 50 61 65 91 62 46 32 39 69 74 70 70 65 64 72 74 66 55 49 52 50 45 42 39 42 42 40 39 35 31 30 26 27 32 41 39 37 38
91 75 99 99 98 99 96 72 73 100 86 52 48 57 46 44 65 56 66 77 71 65 60 55 53 52 50 48 50 48 46 45 43 41 42 41 34 31 25 30 48 45 47 41 40
98 74 98 99 99 98 100 98 99 99 94 64 66 78 82 52 63 73 69 78 74 67 60 58 61 61 58 46 47 48 45 44 41 45 48 40 36 29 26 30 48 51 41 39 42
100 99 96 99 98 99 99 98 99 97 79 81 95 90 90 91 96 92 77 79 80 76 74 68 60 52 47 40 44 43 41 46 56 54 50 32 31 30 25 28 34 41 46 44 45
99 100 99 98 99 99 99 99 97 95 80 64 74 95 89 86 95 89 71 75 76 64 56 66 70 58 45 43 45 52 45 51 54 49 37 31 31 28 29 30 35 42 51 54 49
94 99 99 98 98 99 99 99 94 80 71 67 90 85 86 81 76 87 76 67 71 67 59 49 53 45 48 43 46 44 50 50 47 48 47 39 32 28 32 41 46 50 48 44 33
95 99 98 100 98 99 99 97 95 85 76 79 92 75 78 78 78 79 72 72 67 64 58 48 49 45 43 47 52 44 48 52 54 84 68 42 36 32 40 47 45 45 43 37 33
92 98 86 99 98 98 98 98 94 87 88 83 64 71 70 74 71 65 59 65 69 59 56 52 62 59 60 61 55 56 55 58 65 58 69 57 45 43 44 41 40 37 35 33 26
91 97 98 100 98 99 99 98 94 100 92 99 93 78 70 68 64 55 60 65 60 57 55 66 90 82 65 64 59 62 56 69 62 70 68 69 62 47 45 37 34 31 28 30 30
86 78 100 100 98 98 98 98 99 99 96 98 99 98 90 84 74 62 59 77 68 69 72 76 98 98 98 92 64 61 58 61 74 66 75 74 56 38 40 38 28 40 37 32 28
98 97 99 99 98 98 98 99 98 99 95 95 94 100 99 96 98 89 84 99 98 98 86 75 76 86 74 68 72 64 61 60 60 67 64 68 52 38 33 43 43 37 29 30 40
98 98 97 97 98 98 98 96 100 98 99 99 100 99 98 99 99 99 96 98 94 83 82 72 88 98 97 97 88 72 64 71 82 64 68 50 51 47 48 45 37 29 32 42 52
97 98 97 94 88 99 99 98 91 100 83 97 100 99 99 97 85 90 86 92 90 94 85 91 97 97 96 94 74 61 52 52 55 57 68 68 64 56 49 35 28 30 41 52 48
98 82 97 99 88 100 97 94 96 88 92 82 82 98 100 99 99 98 99 96 93 92 96 95 95 96 95 86 73 56 50 43 39 38 38 39 40 39 34 27 30 37 53 46 47